Flag for Norway Weather past 2 weeks in Kristiansand, Norway

Now
68 °F

Passing clouds.


Feels Like: 68 °F
Forecast: 51 / 61 °F
Wind: 12 mph from West

Location: Kristiansand / Kjevik

Current Time: Jul 31, 2015 at 7:34:18 PM

Latest Report: Jul 31, 2015 at 6:50 PM


Visibility: N/A

Pressure: 29.86 "Hg

Humidity: 43%

Dew point: 45 °F

Location of KristiansandLocation

Historic Weather in Kristiansand — Graph

°F

Kristiansand temperature yesterday

Maximum temperature yesterday: 70 °F (at 11:20 AM)
Minimum temperature yesterday: 54 °F (at 1:20 AM)
Average temperature yesterday: 61 °F

Past Weeks' High & Low Weather Summary

 TemperatureHumidityPressure
High70 °F (Jul 16, 6:20 PM)100% (Jul 18, 1:50 AM)30.07 "Hg (Jul 18, 1:50 AM)
Low46 °F (Jul 17, 3:50 AM)25% (Jul 16, 6:50 PM)29.33 "Hg (Jul 29, 8:20 AM)
Average58 °F74%29.68 "Hg
* Reported Jul 16 6:20 PM — Jul 31 6:20 PM, Kristiansand, Weather by CustomWeather, © 2015

Note: Actual official high and low records may vary slightly from our data, if they occured in-between our weather recording intervals... More about our weather records

Advertising

Kristiansand weather history for previous 24 hours

 ConditionsComfort  
Time TempWeatherWind HumidityBarometerVisibility
6:20 PM
Fri, Jul 31
68 °FPassing clouds.13 mph40%29.86 "HgN/A
5:50 PM70 °FPassing clouds.10 mph40%29.83 "HgN/A
5:20 PM70 °FPassing clouds.9 mph35%29.83 "HgN/A
4:50 PM70 °FPassing clouds.10 mph31%29.83 "HgN/A
4:20 PM70 °FPassing clouds.10 mph35%29.83 "HgN/A
3:50 PM70 °FPassing clouds.7 mph35%29.83 "HgN/A
3:20 PM68 °FPassing clouds.9 mph38%29.83 "HgN/A
2:50 PM68 °FPassing clouds.8 mph38%29.83 "HgN/A
2:20 PM68 °FPassing clouds.8 mph38%29.83 "HgN/A
1:50 PM66 °FPassing clouds.10 mph37%29.83 "HgN/A
1:20 PM66 °FPassing clouds.6 mph40%29.83 "HgN/A
12:50 PM66 °FPassing clouds.8 mph40%29.83 "HgN/A
12:20 PM64 °FPassing clouds.9 mph43%29.83 "HgN/A
11:50 AM63 °FPassing clouds.9 mph42%29.80 "HgN/A
11:20 AM63 °FPassing clouds.10 mph45%29.80 "HgN/A
10:50 AM61 °FPassing clouds.12 mph48%29.80 "HgN/A
10:20 AM61 °FPassing clouds.12 mph48%29.80 "HgN/A
9:50 AM59 °FPassing clouds.12 mph51%29.80 "HgN/A
9:20 AM59 °FSunny.16 mph48%29.77 "Hg10 mi
8:50 AM57 °FSunny.15 mph51%29.77 "Hg10 mi
8:20 AM57 °FSunny.14 mph51%29.77 "Hg10 mi
7:50 AM55 °FSunny.16 mph55%29.77 "Hg10 mi
7:20 AM55 °FSunny.17 mph55%29.74 "Hg10 mi
6:50 AM54 °FSunny.16 mph58%29.74 "Hg10 mi
6:20 AM54 °FSunny.14 mph58%29.71 "Hg10 mi
5:50 AM54 °FPassing clouds.15 mph63%29.71 "HgN/A
5:20 AM54 °FPassing clouds.14 mph67%29.71 "HgN/A
4:50 AM54 °FPassing clouds.15 mph67%29.71 "HgN/A
4:20 AM54 °FPassing clouds.15 mph67%29.71 "HgN/A
3:50 AM54 °FPassing clouds.13 mph67%29.71 "HgN/A
3:20 AM54 °FPassing clouds.10 mph72%29.71 "HgN/A
2:50 AM55 °FPassing clouds.12 mph67%29.68 "HgN/A
2:20 AM55 °FPassing clouds.14 mph67%29.68 "HgN/A
1:50 AM55 °FCool.14 mph67%29.68 "HgN/A
1:20 AM55 °FPassing clouds.14 mph67%29.68 "HgN/A
12:50 AM55 °FPassing clouds.13 mph72%29.68 "HgN/A
12:20 AM57 °FPassing clouds.15 mph67%29.65 "HgN/A
11:50 PM
Thu, Jul 30
57 °FPassing clouds.15 mph72%29.65 "HgN/A
11:20 PM57 °FPassing clouds.9 mph72%29.65 "HgN/A
10:50 PM57 °FSunny.9 mph77%29.65 "Hg10 mi
10:20 PM59 °FSunny.13 mph72%29.62 "Hg10 mi
9:50 PM61 °FSunny.10 mph72%29.62 "Hg10 mi
9:20 PM63 °FSunny.10 mph68%29.62 "Hg10 mi
8:50 PM64 °FPassing clouds.7 mph68%29.62 "HgN/A
8:20 PM64 °FPassing clouds.2 mph83%29.62 "HgN/A
7:50 PM64 °FPassing clouds.8 mph83%29.59 "HgN/A
7:20 PM66 °FPassing clouds.3 mph83%29.59 "HgN/A
Weather by CustomWeather, © 2015

See weather overviewHow to use our weather pages